TimeCDT,TemperatureF,Dew PointF,Humidity,Sea Level PressureIn,VisibilityMPH,Wind Direction,Wind SpeedMPH,Gust SpeedMPH,PrecipitationIn,Events,Conditions,WindDirDegrees,DateUTC
12:13 AM,64.4,57.2,77,29.88,10.0,Calm,Calm,-,N/A,,Clear,0,2013-08-07 05:13:00
12:33 AM,62.6,57.2,82,29.88,10.0,WNW,4.6,-,N/A,,Clear,290,2013-08-07 05:33:00
12:53 AM,62.6,55.4,77,29.88,10.0,WNW,3.5,-,N/A,,Clear,300,2013-08-07 05:53:00
1:13 AM,62.6,55.4,77,29.89,10.0,Calm,Calm,-,N/A,,Clear,0,2013-08-07 06:13:00
1:33 AM,60.8,55.4,82,29.90,10.0,North,5.8,-,N/A,,Clear,350,2013-08-07 06:33:00
1:53 AM,64.4,57.2,77,29.91,10.0,North,5.8,-,N/A,,Clear,10,2013-08-07 06:53:00
2:13 AM,64.4,59.0,83,29.91,10.0,North,5.8,-,N/A,,Clear,10,2013-08-07 07:13:00
2:33 AM,62.6,59.0,88,29.92,10.0,North,8.1,-,N/A,,Clear,10,2013-08-07 07:33:00
2:54 AM,62.6,59.0,88,29.92,7.0,North,6.9,-,N/A,,Mostly Cloudy,10,2013-08-07 07:54:00
3:13 AM,62.6,59.0,88,29.92,7.0,North,8.1,-,N/A,,Overcast,10,2013-08-07 08:13:00
3:33 AM,62.6,59.0,88,29.92,7.0,North,6.9,-,N/A,,Overcast,10,2013-08-07 08:33:00
3:53 AM,62.6,59.0,88,29.92,10.0,North,4.6,-,N/A,,Overcast,10,2013-08-07 08:53:00
4:13 AM,62.6,59.0,88,29.92,10.0,North,3.5,-,N/A,,Mostly Cloudy,360,2013-08-07 09:13:00
4:33 AM,62.6,59.0,88,29.92,10.0,North,8.1,-,N/A,,Mostly Cloudy,360,2013-08-07 09:33:00
4:53 AM,62.6,57.2,82,29.92,10.0,North,9.2,-,N/A,,Overcast,10,2013-08-07 09:53:00
5:13 AM,62.6,59.0,88,29.93,10.0,North,4.6,-,N/A,,Overcast,360,2013-08-07 10:13:00
5:33 AM,62.6,57.2,82,29.93,10.0,North,5.8,-,N/A,,Mostly Cloudy,350,2013-08-07 10:33:00
5:53 AM,60.8,55.4,82,29.94,7.0,NW,3.5,-,N/A,,Scattered Clouds,310,2013-08-07 10:53:00
6:13 AM,59.0,55.4,88,29.95,7.0,NW,4.6,-,N/A,,Clear,320,2013-08-07 11:13:00
6:33 AM,59.0,55.4,88,29.95,5.0,NNW,3.5,-,N/A,,Scattered Clouds,340,2013-08-07 11:33:00
6:53 AM,59.0,55.4,88,29.96,7.0,Calm,Calm,-,N/A,,Scattered Clouds,0,2013-08-07 11:53:00
7:13 AM,59.0,55.4,88,29.96,7.0,North,3.5,-,N/A,,Clear,360,2013-08-07 12:13:00
7:33 AM,60.8,55.4,82,29.97,10.0,North,4.6,-,N/A,,Scattered Clouds,350,2013-08-07 12:33:00
7:53 AM,60.8,55.4,82,29.98,10.0,NNE,6.9,-,N/A,,Mostly Cloudy,20,2013-08-07 12:53:00
8:13 AM,62.6,55.4,77,29.99,10.0,NNE,8.1,-,N/A,,Overcast,20,2013-08-07 13:13:00
8:33 AM,62.6,55.4,77,29.99,10.0,NE,6.9,-,N/A,,Mostly Cloudy,40,2013-08-07 13:33:00
8:53 AM,62.6,55.4,77,30.00,10.0,NNE,6.9,-,N/A,,Scattered Clouds,30,2013-08-07 13:53:00
9:14 AM,66.2,55.4,68,30.00,10.0,NE,8.1,-,N/A,,Mostly Cloudy,40,2013-08-07 14:14:00
9:33 AM,66.2,55.4,68,30.01,10.0,NE,8.1,-,N/A,,Scattered Clouds,40,2013-08-07 14:33:00
9:53 AM,68.0,55.4,64,30.01,10.0,NE,6.9,-,N/A,,Clear,50,2013-08-07 14:53:00
10:13 AM,68.0,57.2,68,30.02,10.0,NE,9.2,-,N/A,,Scattered Clouds,50,2013-08-07 15:13:00
10:33 AM,68.0,55.4,64,30.02,10.0,NE,8.1,-,N/A,,Scattered Clouds,40,2013-08-07 15:33:00
10:54 AM,68.0,55.4,64,30.03,10.0,NE,6.9,-,N/A,,Scattered Clouds,40,2013-08-07 15:54:00
11:13 AM,69.8,55.4,60,30.03,10.0,North,5.8,-,N/A,,Scattered Clouds,10,2013-08-07 16:13:00
11:33 AM,69.8,55.4,60,30.04,10.0,NE,6.9,-,N/A,,Clear,50,2013-08-07 16:33:00
11:53 AM,69.8,55.4,60,30.05,10.0,NNE,3.5,-,N/A,,Scattered Clouds,30,2013-08-07 16:53:00
12:13 PM,69.8,55.4,60,30.04,10.0,NE,5.8,-,N/A,,Scattered Clouds,50,2013-08-07 17:13:00
12:34 PM,71.6,55.4,57,30.04,10.0,ENE,5.8,-,N/A,,Clear,60,2013-08-07 17:34:00
12:53 PM,73.4,55.4,53,30.04,10.0,North,3.5,-,N/A,,Clear,360,2013-08-07 17:53:00
1:13 PM,73.4,55.4,53,30.03,10.0,NE,3.5,-,N/A,,Clear,40,2013-08-07 18:13:00
1:34 PM,73.4,53.6,50,30.03,10.0,North,5.8,-,N/A,,Clear,10,2013-08-07 18:34:00
1:53 PM,73.4,55.4,53,30.03,10.0,East,4.6,-,N/A,,Clear,80,2013-08-07 18:53:00
2:13 PM,75.2,53.6,47,30.03,10.0,Calm,Calm,-,N/A,,Clear,0,2013-08-07 19:13:00
2:34 PM,77.0,55.4,47,30.02,10.0,East,3.5,-,N/A,,Clear,80,2013-08-07 19:34:00
2:53 PM,77.0,53.6,44,30.01,10.0,East,4.6,-,N/A,,Clear,80,2013-08-07 19:53:00
3:13 PM,77.0,55.4,47,30.01,10.0,Calm,Calm,-,N/A,,Clear,0,2013-08-07 20:13:00
3:34 PM,77.0,53.6,44,30.02,10.0,Calm,Calm,-,N/A,,Clear,0,2013-08-07 20:34:00
3:53 PM,77.0,53.6,44,30.01,10.0,Calm,Calm,-,N/A,,Scattered Clouds,0,2013-08-07 20:53:00
4:13 PM,77.0,53.6,44,30.01,10.0,WNW,5.8,-,N/A,,Scattered Clouds,300,2013-08-07 21:13:00
4:33 PM,77.0,53.6,44,30.01,10.0,West,4.6,-,N/A,,Clear,270,2013-08-07 21:33:00
4:53 PM,77.0,53.6,44,30.01,10.0,West,4.6,-,N/A,,Scattered Clouds,280,2013-08-07 21:53:00
5:13 PM,78.8,53.6,42,30.01,10.0,NW,3.5,-,N/A,,Scattered Clouds,310,2013-08-07 22:13:00
5:33 PM,78.8,53.6,42,30.01,10.0,WNW,4.6,-,N/A,,Clear,290,2013-08-07 22:33:00
5:53 PM,77.0,55.4,47,30.01,10.0,Calm,Calm,-,N/A,,Clear,0,2013-08-07 22:53:00
6:13 PM,77.0,53.6,44,30.01,10.0,NNW,4.6,-,N/A,,Clear,340,2013-08-07 23:13:00
6:33 PM,77.0,53.6,44,30.00,10.0,Calm,Calm,-,N/A,,Clear,0,2013-08-07 23:33:00
6:53 PM,77.0,53.6,44,30.00,10.0,North,3.5,-,N/A,,Scattered Clouds,10,2013-08-07 23:53:00
7:13 PM,77.0,55.4,47,30.00,10.0,NE,3.5,-,N/A,,Scattered Clouds,50,2013-08-08 00:13:00
7:33 PM,75.2,55.4,50,30.00,10.0,ENE,3.5,-,N/A,,Clear,70,2013-08-08 00:33:00
7:53 PM,73.4,55.4,53,30.00,10.0,Calm,Calm,-,N/A,,Clear,0,2013-08-08 00:53:00
8:13 PM,71.6,59.0,64,30.00,10.0,East,3.5,-,N/A,,Clear,90,2013-08-08 01:13:00
8:34 PM,69.8,59.0,68,30.01,10.0,East,4.6,-,N/A,,Clear,90,2013-08-08 01:34:00
8:53 PM,68.0,59.0,73,30.01,10.0,East,4.6,-,N/A,,Clear,90,2013-08-08 01:53:00
9:13 PM,68.0,59.0,73,30.02,10.0,East,3.5,-,N/A,,Clear,90,2013-08-08 02:13:00
9:34 PM,66.2,57.2,73,30.03,10.0,East,3.5,-,N/A,,Scattered Clouds,80,2013-08-08 02:34:00
9:53 PM,64.4,57.2,77,30.03,10.0,East,3.5,-,N/A,,Scattered Clouds,80,2013-08-08 02:53:00
10:13 PM,64.4,55.4,73,30.04,10.0,ENE,3.5,-,N/A,,Clear,60,2013-08-08 03:13:00
10:33 PM,64.4,55.4,73,30.04,10.0,ENE,3.5,-,N/A,,Clear,70,2013-08-08 03:33:00
10:53 PM,62.6,55.4,77,30.04,10.0,East,3.5,-,N/A,,Clear,80,2013-08-08 03:53:00
11:13 PM,60.8,55.4,82,30.03,10.0,ESE,3.5,-,N/A,,Clear,120,2013-08-08 04:13:00
11:33 PM,62.6,55.4,77,30.04,10.0,ESE,3.5,-,N/A,,Clear,110,2013-08-08 04:33:00
11:53 PM,62.6,53.6,72,30.04,10.0,Calm,Calm,-,N/A,,Scattered Clouds,0,2013-08-08 04:53:00